[[{"header":{"parameterUnit":"m.s-1","parameterCategory":1,"la1":30.2991,"la2":30.254,"lo1":-89.0895,"lo2":-89.0444,"dy":0.0017,"dx":0.0017,"nx":28,"ny":28,"refTime":"2023-08-14T21:00:00:Z","depth":0,"parameterNumber":2,"parameterNumberName":"U-component_of_WINDS"},"data":[0,0,0,0,0,0,0,0,0,0,0,0,0,0,0,0,0,0,0,0,0,0,0,0,0,0,0,0,0,0,0,0,0,0,0,0,0,0,0,0,0,0,0,0,0,0,0,0,0,0,0,0,0,0,0,0,0,0,2.9477,2.9478,0,2.9491,2.9491,2.9491,2.9493,2.9492,2.9492,2.9492,2.9505,2.9506,2.9506,0,0,0,0,0,0,0,0,0,0,0,0,0,2.9453,2.9454,2.9477,2.9478,2.9478,2.9491,2.9491,2.9491,2.9493,2.9492,2.9492,2.9492,2.9505,2.9506,2.9506,0,0,0,0,0,0,0,0,0,0,0,0,0,2.9465,2.9454,2.9477,2.948,2.948,2.9491,2.9491,2.9491,2.9493,2.9492,2.9492,2.9492,2.9505,2.9505,2.9506,2.9515,0,0,2.9508,2.9509,0,0,0,0,0,0,0,0,2.9464,2.9466,2.9479,2.948,2.948,2.949,2.9487,2.9499,2.9493,2.9488,2.9492,2.9492,2.95,2.9501,2.9504,2.9515,2.9516,2.9508,2.9509,2.9509,2.9509,0,0,0,0,0,0,0,2.9463,2.9465,2.9483,2.948,2.948,2.9481,2.9482,2.949,2.9495,2.9488,2.9488,2.949,2.95,2.9503,2.9504,2.9516,2.9508,2.9509,2.9509,2.951,2.9536,2.9537,0,0,0,0,0,0,2.9462,2.9465,2.9482,2.9483,2.9472,2.9481,2.9483,2.9487,2.9495,2.9496,2.949,2.949,2.9502,2.9504,2.9505,2.9516,2.9509,2.951,2.951,2.9536,2.9536,2.9537,0,0,0,0,0,0,2.9462,2.9464,2.9482,2.9474,2.9476,2.9482,2.9487,2.9487,2.949,2.9496,2.9497,2.9492,2.9502,2.9504,2.9513,2.9517,2.951,2.9511,2.9536,2.9536,2.9536,2.9538,0,0,0,0,0,0,2.9461,2.9463,2.9467,2.9474,2.9477,2.9489,2.9487,2.9488,2.9492,2.9492,2.9499,2.95,2.9502,2.9512,2.9513,2.9517,2.9511,2.9535,2.9536,2.9536,2.9538,2.9539,2.9539,0,0,0,0,0,2.946,2.9466,2.9467,2.9469,2.9481,2.9489,2.9491,2.9494,2.9492,2.9495,2.95,2.9499,2.9516,2.9512,2.9514,2.9519,2.9535,2.9536,2.9536,2.9537,2.9538,2.9539,0,0,0,0,0,0,2.9458,2.9467,2.9468,2.9476,2.9482,2.9489,2.9493,2.9495,2.9501,2.95,2.9504,2.9505,2.9514,2.9517,2.9513,2.9528,2.9525,2.9526,2.9526,2.9527,2.9527,2.9526,2.9512,0,0,0,0,0,2.9459,2.9465,2.9473,2.9479,2.9482,2.9488,2.9491,2.9494,2.9499,2.9502,2.9506,2.9512,2.9519,2.9523,2.9529,2.9539,2.954,2.9543,2.9544,2.9544,2.9545,2.9551,2.9552,2.9539,2.9539,2.9539,0,0,2.946,2.9466,2.9469,2.9479,2.9484,2.9491,2.9489,2.9496,2.9501,2.9503,2.9511,2.9515,2.9522,2.9531,2.9536,2.9534,2.9549,2.9545,2.9545,2.9546,2.9552,2.9553,2.9554,2.9539,2.9539,2.9539,0,0,2.9466,2.9471,2.9477,2.9482,2.949,2.9494,2.9495,2.9503,2.9506,2.9515,2.9516,2.9522,2.9534,2.9539,2.9543,2.9552,2.9553,2.9554,2.9558,2.9564,2.9565,2.9566,2.957,2.9571,2.9555,2.9555,2.9555,0,2.9466,2.9476,2.9481,2.9488,2.9492,2.9495,2.9502,2.9507,2.9516,2.9519,2.9518,2.9533,2.9537,2.9548,2.9551,2.9554,2.9556,2.9553,2.9565,2.9566,2.9567,2.9571,2.9572,2.9555,2.9555,2.9555,2.9555,0,2.9477,2.9484,2.9489,2.9498,2.9504,2.9511,2.9516,2.9521,2.9523,2.9527,2.9537,2.9543,2.9551,2.9554,2.9556,2.9566,2.9565,2.9564,2.9561,2.9568,2.9572,2.9573,2.9556,2.9556,2.9556,2.9555,0,0,2.948,2.9494,2.9495,2.95,2.9509,2.9515,2.9523,2.9531,2.9536,2.9542,2.9549,2.956,2.956,2.9564,2.9567,2.9572,2.958,2.9571,2.9571,2.9573,2.9592,2.9593,2.9594,2.9581,2.9581,2.9581,2.9592,0,2.9487,2.9501,2.9506,2.9518,2.9525,2.9528,2.9535,2.9542,2.9546,2.9553,2.9558,2.9565,2.9564,2.9567,2.9573,2.9578,2.9584,2.9577,2.9587,2.9588,2.9585,2.9596,2.9596,2.9605,2.9593,2.9593,2.9594,0,2.9497,2.9505,2.9517,2.9527,2.953,2.9536,2.9545,2.9552,2.956,2.9563,2.9569,2.9571,2.958,2.9577,2.959,2.9585,2.959,2.9593,2.9593,2.9594,2.9591,2.9597,2.9609,2.961,2.9596,2.9596,2.9596,0,2.9499,2.9512,2.9522,2.9526,2.9537,2.9542,2.9547,2.9555,2.956,2.9568,2.9572,2.958,2.9585,2.9592,2.9597,2.9594,2.9609,2.9606,2.9612,2.9612,2.9614,2.9614,2.9627,2.9617,2.9617,2.9617,2.9617,0,2.9506,2.9513,2.9523,2.9529,2.9538,2.9544,2.9552,2.9558,2.9565,2.9572,2.9576,2.9582,2.9589,2.9596,2.96,2.9611,2.9613,2.9615,2.9616,2.9615,2.9615,2.9617,2.9617,2.9618,2.9618,2.9618,2.9618,0,2.9509,2.9515,2.9526,2.9537,2.954,2.9546,2.9555,2.9561,2.9566,2.9576,2.9578,2.9586,2.9595,2.9602,2.9613,2.9616,2.9627,2.9628,2.9624,2.9625,2.963,2.9629,2.9645,2.9647,2.9637,2.9637,2.9637,0,2.9513,2.9519,2.9531,2.9536,2.9541,2.955,2.9555,2.9562,2.9568,2.9578,2.9583,2.9593,2.9601,2.9616,2.9623,2.9632,2.9633,2.9638,2.9635,2.9633,2.9634,2.9633,2.9634,2.9638,2.9639,2.9639,2.9639,0,2.9519,2.9523,2.9531,2.9541,2.9548,2.9556,2.9564,2.9568,2.9576,2.9583,2.9593,2.9599,2.9612,2.9622,2.9632,2.9637,2.9639,2.964,2.9642,2.964,2.9638,2.964,2.9626,2.9639,2.9639,2.9639,2.9639,2.9639,2.9523,2.9529,2.9538,2.9548,2.9555,2.9563,2.9569,2.9576,2.9585,2.9596,2.9599,2.961,2.9619,2.9633,2.9639,2.9647,2.9647,2.9649,2.965,2.965,2.965,2.9637,2.9649,2.9649,2.9649,2.9649,2.9649,0,2.953,2.9536,2.9545,2.9557,2.9565,2.9567,2.9576,2.9583,2.9592,2.9601,2.9609,2.9621,2.9631,2.9639,2.965,2.9655,2.9656,2.9658,2.9657,2.9658,2.965,2.9648,2.9656,2.9656,2.9656,2.9656,2.9656,2.9656,2.9534,2.9545,2.9549,2.9564,2.9571,2.9581,2.9587,2.9594,2.9601,2.9615,2.9623,2.9629,2.9638,2.9649,2.9658,2.9661,2.9664,2.9665,2.9668,2.966,2.9659,2.9658,2.9656,2.9666,2.9666,2.9675,2.9675,2.9676]},{"header":{"parameterUnit":"m.s-1","parameterCategory":1,"la1":30.2991,"la2":30.254,"lo1":-89.0895,"lo2":-89.0444,"dy":0.0017,"dx":0.0017,"nx":28,"ny":28,"refTime":"2023-08-14T21:00:00:Z","depth":0,"parameterNumber":3,"parameterNumberName":"V-component_of_WINDS"},"data":[0,0,0,0,0,0,0,0,0,0,0,0,0,0,0,0,0,0,0,0,0,0,0,0,0,0,0,0,0,0,0,0,0,0,0,0,0,0,0,0,0,0,0,0,0,0,0,0,0,0,0,0,0,0,0,0,0,0,-0.5694,-0.5694,0,-0.5748,-0.5748,-0.5749,-0.5752,-0.5752,-0.5751,-0.575,-0.5807,-0.5809,-0.5811,0,0,0,0,0,0,0,0,0,0,0,0,0,-0.5597,-0.5599,-0.5694,-0.5694,-0.5695,-0.5747,-0.5748,-0.5749,-0.5752,-0.5752,-0.5751,-0.575,-0.5807,-0.5809,-0.5812,0,0,0,0,0,0,0,0,0,0,0,0,0,-0.5644,-0.5599,-0.5694,-0.5703,-0.5704,-0.5747,-0.5748,-0.5749,-0.5752,-0.5751,-0.5751,-0.575,-0.5806,-0.5809,-0.5812,-0.585,0,0,-0.5822,-0.5823,0,0,0,0,0,0,0,0,-0.5641,-0.5647,-0.5701,-0.5702,-0.5704,-0.5742,-0.5735,-0.5783,-0.5753,-0.5734,-0.575,-0.5749,-0.5787,-0.5791,-0.5803,-0.5853,-0.5855,-0.5822,-0.5824,-0.5825,-0.5826,0,0,0,0,0,0,0,-0.5638,-0.5645,-0.5715,-0.5702,-0.5704,-0.5706,-0.5711,-0.5744,-0.5765,-0.5736,-0.5736,-0.5742,-0.5787,-0.58,-0.5805,-0.5856,-0.5822,-0.5825,-0.5827,-0.5828,-0.5942,-0.5943,0,0,0,0,0,0,-0.5632,-0.5642,-0.5713,-0.5717,-0.567,-0.5708,-0.5714,-0.5731,-0.5765,-0.5769,-0.5743,-0.5742,-0.5795,-0.5801,-0.5807,-0.5855,-0.5825,-0.5828,-0.583,-0.594,-0.5942,-0.5943,0,0,0,0,0,0,-0.563,-0.5639,-0.5711,-0.568,-0.5689,-0.5711,-0.5729,-0.5732,-0.5746,-0.577,-0.5774,-0.5752,-0.5795,-0.5802,-0.584,-0.5857,-0.5829,-0.5832,-0.5939,-0.5941,-0.5942,-0.5951,0,0,0,0,0,0,-0.5628,-0.5638,-0.5652,-0.568,-0.5691,-0.5742,-0.573,-0.5734,-0.5751,-0.575,-0.578,-0.5784,-0.5795,-0.5835,-0.5843,-0.5861,-0.5835,-0.5938,-0.594,-0.5942,-0.5949,-0.5953,-0.5956,0,0,0,0,0,-0.5624,-0.5652,-0.5652,-0.5661,-0.5708,-0.5743,-0.5749,-0.5761,-0.5752,-0.5767,-0.5783,-0.5783,-0.5854,-0.5839,-0.5848,-0.5867,-0.5937,-0.5939,-0.5942,-0.5948,-0.5952,-0.5956,0,0,0,0,0,0,-0.5625,-0.5656,-0.5656,-0.5694,-0.5716,-0.5743,-0.5762,-0.5764,-0.579,-0.5788,-0.5802,-0.5808,-0.5846,-0.586,-0.5843,-0.5907,-0.5894,-0.5899,-0.5896,-0.59,-0.5904,-0.59,-0.5837,0,0,0,0,0,-0.563,-0.5655,-0.568,-0.5711,-0.5722,-0.574,-0.5756,-0.5763,-0.5786,-0.5796,-0.5814,-0.5838,-0.5866,-0.5884,-0.591,-0.5951,-0.5959,-0.5969,-0.5972,-0.5975,-0.5979,-0.6004,-0.601,-0.5951,-0.5951,-0.5951,0,0,-0.564,-0.5659,-0.5674,-0.5712,-0.573,-0.5757,-0.5748,-0.5776,-0.5797,-0.58,-0.5837,-0.5852,-0.5879,-0.5919,-0.5937,-0.5932,-0.5997,-0.5978,-0.598,-0.5983,-0.6007,-0.6013,-0.6018,-0.5953,-0.5953,-0.5953,0,0,-0.5672,-0.5688,-0.5717,-0.5735,-0.5762,-0.5774,-0.5781,-0.5809,-0.5819,-0.5856,-0.5859,-0.5885,-0.5931,-0.5951,-0.5968,-0.6009,-0.6011,-0.6018,-0.6035,-0.6059,-0.6064,-0.6068,-0.6085,-0.6091,-0.6021,-0.6021,-0.6021,0,-0.5681,-0.572,-0.5731,-0.576,-0.5777,-0.5781,-0.5811,-0.5829,-0.5863,-0.5876,-0.5869,-0.5929,-0.5948,-0.5994,-0.6004,-0.6016,-0.6026,-0.6015,-0.6062,-0.6067,-0.6071,-0.6087,-0.6093,-0.6022,-0.6022,-0.6022,-0.6022,0,-0.5731,-0.5759,-0.5779,-0.5812,-0.5832,-0.5861,-0.5877,-0.5896,-0.5902,-0.5915,-0.5954,-0.5977,-0.6009,-0.602,-0.6026,-0.6067,-0.6063,-0.6059,-0.6047,-0.6077,-0.6092,-0.6099,-0.6023,-0.6023,-0.6023,-0.6022,0,0,-0.5765,-0.5805,-0.5812,-0.5829,-0.5859,-0.5882,-0.5912,-0.5943,-0.596,-0.5984,-0.6011,-0.6052,-0.6049,-0.6067,-0.6075,-0.6096,-0.6131,-0.609,-0.6091,-0.6098,-0.6181,-0.6185,-0.6192,-0.6132,-0.6133,-0.6134,-0.6179,0,-0.5802,-0.5855,-0.5866,-0.5913,-0.594,-0.5945,-0.5972,-0.5995,-0.6008,-0.6034,-0.605,-0.6079,-0.6072,-0.6083,-0.6104,-0.6122,-0.6148,-0.6119,-0.6159,-0.616,-0.6153,-0.6199,-0.6203,-0.6245,-0.6185,-0.6186,-0.6187,0,-0.5852,-0.5877,-0.5927,-0.5956,-0.5968,-0.5991,-0.6022,-0.6046,-0.6073,-0.6082,-0.6103,-0.6109,-0.6143,-0.6129,-0.6176,-0.6156,-0.6174,-0.6185,-0.6187,-0.6192,-0.6176,-0.6208,-0.6258,-0.6265,-0.6196,-0.6195,-0.6195,0,-0.5874,-0.5921,-0.5957,-0.597,-0.6005,-0.6022,-0.6037,-0.6063,-0.6081,-0.6109,-0.6122,-0.6152,-0.617,-0.6194,-0.6209,-0.6197,-0.6256,-0.6243,-0.6266,-0.6266,-0.6279,-0.6278,-0.6335,-0.6288,-0.6288,-0.6287,-0.6287,0,-0.5915,-0.5945,-0.5967,-0.599,-0.6025,-0.6038,-0.6073,-0.6088,-0.6111,-0.6138,-0.6144,-0.6169,-0.6187,-0.6215,-0.6227,-0.6266,-0.6273,-0.6282,-0.6286,-0.6283,-0.6282,-0.6295,-0.6293,-0.6289,-0.6289,-0.6288,-0.6288,0,-0.5946,-0.5961,-0.6002,-0.6031,-0.604,-0.6064,-0.609,-0.6113,-0.6127,-0.6161,-0.617,-0.6193,-0.6226,-0.6243,-0.6285,-0.6293,-0.6338,-0.6338,-0.6329,-0.633,-0.6353,-0.6352,-0.6422,-0.6432,-0.6376,-0.6377,-0.6377,0,-0.5971,-0.5995,-0.6027,-0.6045,-0.6061,-0.609,-0.611,-0.6124,-0.6145,-0.6178,-0.6197,-0.6231,-0.6259,-0.6313,-0.6334,-0.6366,-0.6369,-0.6391,-0.6374,-0.6371,-0.6372,-0.6371,-0.6374,-0.6394,-0.6395,-0.6395,-0.6396,0,-0.6016,-0.6023,-0.605,-0.6081,-0.6104,-0.6129,-0.6154,-0.6169,-0.6188,-0.6211,-0.6245,-0.6267,-0.631,-0.6344,-0.6379,-0.6396,-0.64,-0.6401,-0.6408,-0.6407,-0.6401,-0.6406,-0.6339,-0.6399,-0.6399,-0.6399,-0.6399,-0.6398,-0.6046,-0.6068,-0.6095,-0.6126,-0.6146,-0.617,-0.6193,-0.6211,-0.6239,-0.6276,-0.6283,-0.632,-0.6348,-0.6394,-0.6413,-0.6443,-0.6439,-0.6449,-0.6452,-0.6455,-0.6457,-0.6395,-0.6449,-0.6449,-0.6449,-0.6449,-0.6449,0,-0.6093,-0.6111,-0.6139,-0.6174,-0.6199,-0.6199,-0.6227,-0.6249,-0.6281,-0.6306,-0.6334,-0.6375,-0.6408,-0.6432,-0.6467,-0.6487,-0.649,-0.6496,-0.6495,-0.65,-0.6458,-0.6449,-0.6493,-0.6493,-0.6493,-0.6493,-0.6493,-0.6493,-0.612,-0.6158,-0.6169,-0.6218,-0.6236,-0.6272,-0.6288,-0.631,-0.6331,-0.6376,-0.6404,-0.6419,-0.6445,-0.6482,-0.6514,-0.652,-0.6533,-0.654,-0.6546,-0.6507,-0.6502,-0.6498,-0.649,-0.6542,-0.6542,-0.6586,-0.6587,-0.6587]}]]